• en Belgique
  • Liste des pays
  • À 7 jours
  • Température de l'eau
  • Carte satellitaire
  • Carte météo
  • Widgets météo
  • user-avatar
    Se connecter

    Météo par heure à Aspelt

    Ce jour, 28 Mai, Lundi

    Heure Température Précipitation Vent Pression Humidité
    00:00 +18°C° 0,1 mm 1 m/s 738 mmHg 89%
    01:00 +16°C° 0 mm 1 m/s 738 mmHg 89%
    02:00 +16°C° 0 mm 1 m/s 738 mmHg 89%
    03:00 +16°C° 0 mm 1 m/s 738 mmHg 89%
    04:00 +18°C° 0 mm 1 m/s 738 mmHg 88%
    05:00 +19°C° 0 mm 1 m/s 738 mmHg 87%
    06:00 +20°C° 0 mm 1 m/s 739 mmHg 86%
    07:00 +21°C° 0,1 mm 2 m/s 739 mmHg 82%
    08:00 +24°C° 0,1 mm 2 m/s 739 mmHg 78%
    09:00 +25°C° 0,1 mm 2 m/s 739 mmHg 73%
    10:00 +26°C° 0,3 mm 3 m/s 739 mmHg 71%
    11:00 +27°C° 0,3 mm 3 m/s 739 mmHg 69%
    12:00 +27°C° 0,3 mm 3 m/s 738 mmHg 67%
    13:00 +27°C° 0,7 mm 3 m/s 738 mmHg 69%
    14:00 +27°C° 0,7 mm 2 m/s 738 mmHg 72%
    15:00 +27°C° 0,7 mm 2 m/s 738 mmHg 74%
    16:00 +26°C° 1,3 mm 2 m/s 737 mmHg 77%
    17:00 +25°C° 1,3 mm 1 m/s 737 mmHg 80%
    18:00 +23°C° 1,3 mm 1 m/s 737 mmHg 83%
    19:00 +22°C° 0,6 mm 1 m/s 737 mmHg 85%
    20:00 +22°C° 0,6 mm 1 m/s 737 mmHg 87%
    21:00 +20°C° 0,6 mm 2 m/s 737 mmHg 88%
    22:00 +20°C° 1 mm 1 m/s 737 mmHg 89%
    23:00 +20°C° 1 mm 1 m/s 737 mmHg 91%

    Demain, 29 Mai, Mardi

    Heure Température Précipitation Vent Pression Humidité
    00:00 +19°C° 1 mm 1 m/s 737 mmHg 92%
    01:00 +19°C° 0,1 mm 1 m/s 737 mmHg 92%
    02:00 +19°C° 0,1 mm 1 m/s 737 mmHg 92%
    03:00 +19°C° 0,1 mm 1 m/s 737 mmHg 92%
    04:00 +19°C° 0,2 mm 1 m/s 737 mmHg 92%
    05:00 +20°C° 0,2 mm 1 m/s 737 mmHg 91%
    06:00 +21°C° 0,2 mm 1 m/s 737 mmHg 91%
    07:00 +20°C° 0,7 mm 2 m/s 737 mmHg 90%
    08:00 +21°C° 0,7 mm 2 m/s 737 mmHg 89%
    09:00 +21°C° 0,7 mm 3 m/s 737 mmHg 88%
    10:00 +22°C° 0,2 mm 3 m/s 736 mmHg 83%
    11:00 +24°C° 0,2 mm 3 m/s 736 mmHg 78%
    12:00 +25°C° 0,2 mm 3 m/s 736 mmHg 73%
    13:00 +25°C° 0,9 mm 3 m/s 736 mmHg 75%
    14:00 +25°C° 0,9 mm 3 m/s 735 mmHg 77%
    15:00 +25°C° 0,9 mm 3 m/s 735 mmHg 78%
    16:00 +24°C° 0,2 mm 2 m/s 735 mmHg 80%
    17:00 +24°C° 0,2 mm 2 m/s 735 mmHg 82%
    18:00 +23°C° 0,2 mm 1 m/s 734 mmHg 84%
    19:00 +22°C° 0 mm 1 m/s 734 mmHg 86%
    20:00 +20°C° 0 mm 1 m/s 735 mmHg 87%
    21:00 +17°C° 0 mm 0 m/s 735 mmHg 89%
    22:00 +16°C° 0 mm 0 m/s 734 mmHg 89%
    23:00 +18°C° 0 mm 1 m/s 734 mmHg 90%

    Après-demain, 30 Mai, Mercredi

    Heure Température Précipitation Vent Pression Humidité
    00:00 +16°C° 0 mm 1 m/s 734 mmHg 91%
    01:00 +15°C° 0 mm 0 m/s 734 mmHg 91%
    02:00 +15°C° 0 mm 0 m/s 734 mmHg 91%
    03:00 +14°C° 0 mm 0 m/s 734 mmHg 91%
    04:00 +15°C° 0 mm 0 m/s 734 mmHg 90%
    05:00 +17°C° 0 mm 0 m/s 734 mmHg 89%
    06:00 +18°C° 0 mm 0 m/s 735 mmHg 87%
    07:00 +21°C° 0 mm 1 m/s 735 mmHg 83%
    08:00 +23°C° 0 mm 1 m/s 735 mmHg 78%
    09:00 +24°C° 0 mm 1 m/s 735 mmHg 74%
    10:00 +25°C° 0,2 mm 2 m/s 735 mmHg 71%
    11:00 +26°C° 0,2 mm 2 m/s 735 mmHg 68%
    12:00 +27°C° 0,2 mm 2 m/s 735 mmHg 65%
    13:00 +27°C° 0,1 mm 2 m/s 734 mmHg 65%
    14:00 +27°C° 0,1 mm 2 m/s 734 mmHg 65%
    15:00 +27°C° 0,1 mm 2 m/s 734 mmHg 65%
    16:00 +26°C° 0,1 mm 1 m/s 734 mmHg 70%
    17:00 +26°C° 0,1 mm 1 m/s 734 mmHg 75%
    18:00 +25°C° 0,1 mm 1 m/s 734 mmHg 79%
    19:00 +23°C° 1,7 mm 1 m/s 734 mmHg 82%
    20:00 +22°C° 1,7 mm 1 m/s 734 mmHg 85%
    21:00 +20°C° 1,7 mm 1 m/s 735 mmHg 88%
    22:00 +20°C° 0,1 mm 1 m/s 735 mmHg 88%
    23:00 +20°C° 0,1 mm 1 m/s 734 mmHg 88%

    31 Mai, Jeudi

    Heure Température Précipitation Vent Pression Humidité
    00:00 +19°C° 0,1 mm 1 m/s 734 mmHg 89%
    01:00 +19°C° 0 mm 1 m/s 734 mmHg 89%
    02:00 +18°C° 0 mm 1 m/s 734 mmHg 89%
    03:00 +16°C° 0 mm 0 m/s 734 mmHg 90%
    04:00 +19°C° 0 mm 1 m/s 735 mmHg 90%
    05:00 +20°C° 0 mm 1 m/s 735 mmHg 89%
    06:00 +21°C° 0 mm 1 m/s 735 mmHg 89%
    07:00 +20°C° 0,8 mm 2 m/s 735 mmHg 87%
    08:00 +21°C° 0,8 mm 2 m/s 735 mmHg 86%
    09:00 +22°C° 0,8 mm 3 m/s 736 mmHg 84%
    10:00 +22°C° 0,4 mm 3 m/s 736 mmHg 82%
    11:00 +24°C° 0,4 mm 3 m/s 735 mmHg 79%
    12:00 +24°C° 0,4 mm 3 m/s 735 mmHg 77%
    13:00 +24°C° 0,5 mm 3 m/s 735 mmHg 79%
    14:00 +24°C° 0,5 mm 3 m/s 735 mmHg 80%
    15:00 +24°C° 0,5 mm 3 m/s 735 mmHg 82%
    16:00 +23°C° 0,6 mm 2 m/s 735 mmHg 84%
    17:00 +23°C° 0,6 mm 2 m/s 735 mmHg 87%
    18:00 +23°C° 0,6 mm 1 m/s 735 mmHg 89%
    19:00 +21°C° 0,5 mm 1 m/s 735 mmHg 90%
    20:00 +20°C° 0,5 mm 1 m/s 736 mmHg 91%
    21:00 +19°C° 0,5 mm 1 m/s 736 mmHg 92%
    22:00 +19°C° 0,2 mm 1 m/s 736 mmHg 93%
    23:00 +19°C° 0,2 mm 1 m/s 736 mmHg 93%

    1 Juin, Vendredi

    Heure Température Précipitation Vent Pression Humidité
    00:00 +18°C° 0,2 mm 1 m/s 736 mmHg 94%
    01:00 +18°C° 0,2 mm 1 m/s 736 mmHg 95%
    02:00 +18°C° 0,2 mm 1 m/s 736 mmHg 95%
    03:00 +18°C° 0,2 mm 1 m/s 736 mmHg 95%
    04:00 +19°C° 0,3 mm 1 m/s 736 mmHg 95%
    05:00 +19°C° 0,3 mm 1 m/s 737 mmHg 95%
    06:00 +20°C° 0,3 mm 1 m/s 737 mmHg 94%
    07:00 +19°C° 0,7 mm 2 m/s 737 mmHg 92%
    08:00 +20°C° 0,7 mm 2 m/s 737 mmHg 90%
    09:00 +21°C° 0,7 mm 2 m/s 737 mmHg 87%
    10:00 +23°C° 0,9 mm 2 m/s 737 mmHg 86%
    11:00 +22°C° 0,9 mm 3 m/s 737 mmHg 84%
    12:00 +24°C° 0,9 mm 3 m/s 737 mmHg 83%
    13:00 +24°C° 1 mm 3 m/s 737 mmHg 82%
    14:00 +24°C° 1 mm 3 m/s 737 mmHg 80%
    15:00 +25°C° 1 mm 3 m/s 737 mmHg 79%
    16:00 +24°C° 0,6 mm 2 m/s 737 mmHg 82%
    17:00 +23°C° 0,6 mm 2 m/s 737 mmHg 84%
    18:00 +23°C° 0,6 mm 2 m/s 737 mmHg 87%
    19:00 +21°C° 0,1 mm 2 m/s 737 mmHg 87%
    20:00 +19°C° 0,1 mm 2 m/s 738 mmHg 88%
    21:00 +18°C° 0,1 mm 2 m/s 738 mmHg 89%
    22:00 +17°C° 0 mm 3 m/s 738 mmHg 89%
    23:00 +17°C° 0 mm 3 m/s 738 mmHg 90%

    2 Juin, Samedi

    Heure Température Précipitation Vent Pression Humidité
    00:00 +16°C° 0 mm 3 m/s 738 mmHg 90%
    01:00 +14°C° 0 mm 3 m/s 738 mmHg 90%
    02:00 +14°C° 0 mm 3 m/s 738 mmHg 91%
    03:00 +13°C° 0 mm 3 m/s 739 mmHg 91%
    04:00 +14°C° 0 mm 3 m/s 739 mmHg 89%
    05:00 +16°C° 0 mm 3 m/s 739 mmHg 88%
    06:00 +16°C° 0 mm 3 m/s 739 mmHg 86%
    07:00 +18°C° 0 mm 4 m/s 740 mmHg 81%
    08:00 +20°C° 0 mm 4 m/s 740 mmHg 76%
    09:00 +21°C° 0 mm 4 m/s 740 mmHg 71%
    10:00 +22°C° 0 mm 4 m/s 740 mmHg 69%
    11:00 +23°C° 0 mm 4 m/s 740 mmHg 66%
    12:00 +23°C° 0 mm 4 m/s 740 mmHg 63%
    13:00 +25°C° 0 mm 4 m/s 740 mmHg 63%
    14:00 +25°C° 0 mm 4 m/s 740 mmHg 63%
    15:00 +25°C° 0 mm 4 m/s 739 mmHg 63%
    16:00 +24°C° 0 mm 3 m/s 739 mmHg 67%
    17:00 +22°C° 0 mm 3 m/s 739 mmHg 71%
    18:00 +21°C° 0 mm 3 m/s 740 mmHg 74%
    19:00 +19°C° 0 mm 3 m/s 740 mmHg 76%
    20:00 +18°C° 0 mm 3 m/s 740 mmHg 77%
    21:00 +16°C° 0 mm 3 m/s 740 mmHg 79%
    22:00 +14°C° 0 mm 3 m/s 740 mmHg 80%
    23:00 +14°C° 0 mm 3 m/s 740 mmHg 82%
    Voir plus